Weather History for KDYT - July, 2013

Change the Weather History Date:

Monday, July 29, 2013

  Actual Average Record
Temperature  
Mean Temperature 63 °F -  
Max Temperature 75 °F 76 °F 97 °F (1988)
Min Temperature 51 °F 55 °F 40 °F (1965)
Degree Days  
Heating Degree Days 2    
Growing Degree Days 13 (Base 50)    
Moisture  
Dew Point 54 °F    
Average Humidity 74    
Maximum Humidity 94    
Minimum Humidity 41    
Precipitation  
Precipitation 0.00 in - - ()
Sea Level Pressure  
Sea Level Pressure 30.09 in    
Wind  
Wind Speed 4 mph (SSW)    
Max Wind Speed 9 mph    
Max Gust Speed -    
Visibility 10 miles    
Events      
Averages and records for this station are not official NWS values.
T = Trace of Precipitation, MM = Missing Value Source: NWS Daily Summary

Daily Weather History Graph

Daily Weather History Graph

Search for Another Location

Airport or City:

Trip Planner

Search our weather history database for the weather conditions in past years. The results will help you decide how hot, cold, wet, or windy it might be!

Date:

Astronomy

Jul. 29, 2013 Rise Set
Actual Time 5:45 AM CDT 8:43 PM CDT
Civil Twilight 5:09 AM CDT 9:18 PM CDT
Nautical Twilight 4:23 AM CDT 10:04 PM CDT
Astronomical Twilight 3:28 AM CDT 10:59 PM CDT
Moon No Moon Rise 2:00 PM CDT (7/29)
Length of Visible Light 16h 09m
Length of Day
14h 58m
Waning Gibbous, 50% of the Moon is Illuminated
Jul 29
Waning Gibbous
Jul 29
Last Quarter
Aug 6
New
Aug 14
First Quarter
Aug 20
Full

Hourly Weather History & Observations

Time (CDT) Temp. Dew Point Humidity Pressure Visibility Wind Dir Wind Speed Gust Speed Precip Events Conditions
12:13 AM 59.0 °F 53.6 °F 82% 30.05 in 10.0 mi Calm Calm - N/A   Clear
12:34 AM 59.0 °F 53.6 °F 82% 30.05 in 10.0 mi Calm Calm - N/A   Clear
12:53 AM 59.0 °F 53.6 °F 82% 30.05 in 10.0 mi Calm Calm - N/A   Clear
1:13 AM 57.2 °F 53.6 °F 88% 30.05 in 10.0 mi SW 5.8 mph - N/A   Clear
1:34 AM 57.2 °F 53.6 °F 88% 30.05 in 10.0 mi SW 4.6 mph - N/A   Clear
1:53 AM 55.4 °F 51.8 °F 88% 30.05 in 10.0 mi South 4.6 mph - N/A   Clear
2:13 AM 53.6 °F 51.8 °F 94% 30.06 in 10.0 mi SSW 4.6 mph - N/A   Clear
2:33 AM 53.6 °F 51.8 °F 94% 30.06 in 10.0 mi SSW 6.9 mph - N/A   Clear
2:53 AM 53.6 °F 50.0 °F 88% 30.06 in 10.0 mi SSW 6.9 mph - N/A   Clear
3:14 AM 53.6 °F 50.0 °F 88% 30.06 in 10.0 mi SSW 4.6 mph - N/A   Clear
3:33 AM 51.8 °F 50.0 °F 94% 30.07 in 10.0 mi SW 5.8 mph - N/A   Clear
3:53 AM 51.8 °F 48.2 °F 88% 30.07 in 10.0 mi Calm Calm - N/A   Clear
4:14 AM 51.8 °F 48.2 °F 88% 30.07 in 10.0 mi Calm Calm - N/A   Clear
4:33 AM 51.8 °F 48.2 °F 88% 30.08 in 10.0 mi South 3.5 mph - N/A   Clear
4:53 AM 51.8 °F 48.2 °F 88% 30.08 in 10.0 mi South 4.6 mph - N/A   Clear
5:14 AM 51.8 °F 48.2 °F 88% 30.08 in 10.0 mi South 5.8 mph - N/A   Clear
5:33 AM 51.8 °F 48.2 °F 88% 30.09 in 10.0 mi South 6.9 mph - N/A   Clear
5:53 AM 51.8 °F 48.2 °F 88% 30.08 in 10.0 mi South 5.8 mph - N/A   Clear
6:14 AM 51.8 °F 48.2 °F 88% 30.09 in 10.0 mi SSW 6.9 mph - N/A   Clear
6:33 AM 51.8 °F 48.2 °F 88% 30.10 in 10.0 mi SW 6.9 mph - N/A   Clear
6:53 AM 53.6 °F 48.2 °F 82% 30.10 in 10.0 mi SW 5.8 mph - N/A   Clear
7:14 AM 53.6 °F 50.0 °F 88% 30.10 in 10.0 mi South 4.6 mph - N/A   Clear
7:33 AM 55.4 °F 51.8 °F 88% 30.10 in 10.0 mi SW 5.8 mph - N/A   Clear
7:53 AM 57.2 °F 51.8 °F 82% 30.10 in 10.0 mi SW 4.6 mph - N/A   Clear
8:14 AM 57.2 °F 53.6 °F 88% 30.10 in 10.0 mi SSW 4.6 mph - N/A   Clear
8:34 AM 60.8 °F 53.6 °F 77% 30.11 in 10.0 mi SW 4.6 mph - N/A   Clear
8:53 AM 62.6 °F 55.4 °F 77% 30.11 in 10.0 mi SW 4.6 mph - N/A   Clear
9:14 AM 62.6 °F 55.4 °F 77% 30.11 in 10.0 mi SW 3.5 mph - N/A   Clear
9:33 AM 64.4 °F 55.4 °F 73% 30.11 in 10.0 mi SSW 4.6 mph - N/A   Clear
9:53 AM 68.0 °F 55.4 °F 64% 30.11 in 10.0 mi SW 6.9 mph - N/A   Clear
10:13 AM 69.8 °F 55.4 °F 60% 30.11 in 10.0 mi SW 8.1 mph - N/A   Clear
10:34 AM 69.8 °F 53.6 °F 56% 30.11 in 10.0 mi SW 6.9 mph - N/A   Clear
10:53 AM 71.6 °F 53.6 °F 53% 30.11 in 10.0 mi SW 4.6 mph - N/A   Clear
11:13 AM 71.6 °F 51.8 °F 50% 30.12 in 10.0 mi WSW 6.9 mph - N/A   Clear
11:33 AM 71.6 °F 51.8 °F 50% 30.11 in 10.0 mi WSW 3.5 mph - N/A   Clear
11:53 AM 71.6 °F 51.8 °F 50% 30.12 in 10.0 mi SSW 3.5 mph - N/A   Clear
12:13 PM 71.6 °F 50.0 °F 46% 30.11 in 10.0 mi West 3.5 mph - N/A   Clear
12:33 PM 73.4 °F 51.8 °F 47% 30.11 in 10.0 mi South 6.9 mph - N/A   Clear
12:54 PM 73.4 °F 51.8 °F 47% 30.11 in 10.0 mi West 5.8 mph - N/A   Clear
1:13 PM 73.4 °F 50.0 °F 44% 30.10 in 10.0 mi Calm Calm - N/A   Clear
1:33 PM 73.4 °F 51.8 °F 47% 30.10 in 10.0 mi SSW 4.6 mph - N/A   Clear
1:53 PM 75.2 °F 51.8 °F 44% 30.10 in 10.0 mi WSW 5.8 mph - N/A   Scattered Clouds
2:13 PM 75.2 °F 51.8 °F 44% 30.10 in 10.0 mi WSW 8.1 mph - N/A   Scattered Clouds
2:34 PM 75.2 °F 50.0 °F 41% 30.10 in 10.0 mi South 3.5 mph - N/A   Scattered Clouds
2:53 PM 75.2 °F 51.8 °F 44% 30.10 in 10.0 mi SW 3.5 mph - N/A   Scattered Clouds
3:13 PM 75.2 °F 51.8 °F 44% 30.09 in 10.0 mi WNW 4.6 mph - N/A   Scattered Clouds
3:34 PM 71.6 °F 55.4 °F 57% 30.09 in 10.0 mi Calm Calm - N/A   Scattered Clouds
3:53 PM 73.4 °F 57.2 °F 57% 30.09 in 10.0 mi ENE 6.9 mph - N/A   Scattered Clouds
4:13 PM 69.8 °F 55.4 °F 60% 30.09 in 10.0 mi NE 6.9 mph - N/A   Scattered Clouds
4:33 PM 69.8 °F 60.8 °F 73% 30.08 in 10.0 mi East 9.2 mph - N/A   Scattered Clouds
4:54 PM 69.8 °F 60.8 °F 73% 30.08 in 10.0 mi East 4.6 mph - N/A   Clear
5:13 PM 71.6 °F 62.6 °F 73% 30.08 in 10.0 mi East 5.8 mph - N/A   Clear
5:34 PM 68.0 °F 60.8 °F 78% 30.08 in 10.0 mi ESE 5.8 mph - N/A   Clear
5:53 PM 66.2 °F 60.8 °F 83% 30.08 in 10.0 mi East 5.8 mph - N/A   Clear
6:14 PM 66.2 °F 60.8 °F 83% 30.08 in 10.0 mi ESE 8.1 mph - N/A   Scattered Clouds
6:33 PM 66.2 °F 57.2 °F 73% 30.09 in 10.0 mi ESE 8.1 mph - N/A   Mostly Cloudy
6:53 PM 66.2 °F 57.2 °F 73% 30.08 in 10.0 mi ESE 6.9 mph - N/A   Scattered Clouds
7:14 PM 66.2 °F 57.2 °F 73% 30.09 in 10.0 mi East 3.5 mph - N/A   Clear
7:33 PM 66.2 °F 57.2 °F 73% 30.09 in 10.0 mi East 5.8 mph - N/A   Scattered Clouds
7:53 PM 66.2 °F 57.2 °F 73% 30.09 in 10.0 mi Calm Calm - N/A   Scattered Clouds
8:14 PM 66.2 °F 57.2 °F 73% 30.09 in 10.0 mi Calm Calm - N/A   Clear
8:33 PM 64.4 °F 59.0 °F 83% 30.09 in 10.0 mi North 4.6 mph - N/A   Clear
8:53 PM 62.6 °F 57.2 °F 82% 30.09 in 10.0 mi NW 3.5 mph - N/A   Clear
9:14 PM 62.6 °F 57.2 °F 82% 30.09 in 10.0 mi North 4.6 mph - N/A   Clear
9:34 PM 62.6 °F 57.2 °F 82% 30.10 in 10.0 mi North 4.6 mph - N/A   Clear
9:53 PM 62.6 °F 57.2 °F 82% 30.10 in 10.0 mi North 4.6 mph - N/A   Clear
10:14 PM 62.6 °F 57.2 °F 82% 30.10 in 10.0 mi NNE 4.6 mph - N/A   Clear
10:33 PM 62.6 °F 57.2 °F 82% 30.10 in 10.0 mi NNE 4.6 mph - N/A   Scattered Clouds
10:53 PM 62.6 °F 57.2 °F 82% 30.09 in 10.0 mi NNE 6.9 mph - N/A   Clear
11:14 PM 62.6 °F 57.2 °F 82% 30.09 in 10.0 mi NE 6.9 mph - N/A   Clear
11:33 PM 62.6 °F 57.2 °F 82% 30.10 in 10.0 mi NE 4.6 mph - N/A   Scattered Clouds
11:54 PM 62.6 °F 57.2 °F 82% 30.10 in 10.0 mi Calm Calm - N/A   Scattered Clouds